Weather History for Zacatecas Airport, Mexico

Change the Weather History Date:

Thursday, December 13, 2012

  Actual Average Record
Temperature  
Mean Temperature 52 °F -  
Max Temperature 62 °F 66 °F 78 °F (2005)
Min Temperature 42 °F 32 °F 15 °F (1997)
Degree Days  
Heating Degree Days 13    
Growing Degree Days 2 (Base 50)    
Moisture  
Dew Point 33 °F    
Average Humidity 49    
Maximum Humidity 61    
Minimum Humidity 39    
Precipitation  
Precipitation 0.00 in - - ()
Sea Level Pressure  
Sea Level Pressure 30.27 in    
Wind  
Wind Speed 6 mph ()    
Max Wind Speed 16 mph    
Max Gust Speed 28 mph    
Visibility 10.0 miles    
Events      
Averages and records for this station are not official NWS values.
T = Trace of Precipitation, MM = Missing Value Source: Averaged Metar Reports

Daily Weather History Graph

Daily Weather History Graph

Search for Another Location

Airport:

Trip Planner

Search our weather history database for the weather conditions in past years. The results will help you decide how hot, cold, wet, or windy it might be!

Date:

Astronomy

Dec. 13, 2012 Rise Set
Actual Time 7:22 AM CST 6:07 PM CST
Civil Twilight 6:58 AM CST 6:32 PM CST
Nautical Twilight 6:30 AM CST 7:00 PM CST
Astronomical Twilight 6:02 AM CST 7:27 PM CST
Moon 7:35 AM CST (12/13) 6:49 PM CST (12/13)
Length of Visible Light 11h 33m
Length of Day
10h 44m
New Moon, 0% of the Moon is Illuminated
Dec 13
New Moon
Dec 19
First Quarter
Dec 28
Full
Jan 4
Last Quarter
Jan 11
New

Hourly Weather History & Observations

Time (CST) Temp. Windchill Dew Point Humidity Pressure Visibility Wind Dir Wind Speed Gust Speed Precip Events Conditions
12:04 AM 44.6 °F - 26.6 °F 49% 30.30 in 10.0 mi Calm Calm - N/A   Mostly Cloudy
12:45 AM 42.8 °F - 26.6 °F 53% 30.30 in 10.0 mi Calm Calm - N/A   Scattered Clouds
2:17 AM 44.6 °F 40.2 °F 30.2 °F 57% 30.29 in 10.0 mi South 8.1 mph - N/A   Partly Cloudy
4:13 AM 46.4 °F 41.9 °F 32.0 °F 57% 30.28 in 10.0 mi SSW 9.2 mph - N/A   Partly Cloudy
5:09 AM 44.6 °F 41.4 °F 32.0 °F 61% 30.29 in 10.0 mi SSW 5.8 mph - N/A   Scattered Clouds
5:53 AM 44.6 °F 40.7 °F 30.2 °F 57% 30.29 in 10.0 mi SSW 6.9 mph - N/A   Scattered Clouds
6:51 AM 46.4 °F 42.4 °F 32.0 °F 57% 30.30 in 10.0 mi SW 8.1 mph - N/A   Mostly Cloudy
7:40 AM 46.4 °F 42.9 °F 30.2 °F 53% 30.32 in 10.0 mi WSW 6.9 mph - N/A   Overcast
8:40 AM 48.2 °F - 32.0 °F 54% 30.35 in 10.0 mi South 6.9 mph - N/A   Overcast
9:40 AM 53.6 °F - 33.8 °F 47% 30.36 in 10.0 mi South 9.2 mph - N/A   Overcast
10:42 AM 59.0 °F - 35.6 °F 42% 30.37 in 10.0 mi SSW 13.8 mph - N/A   Overcast
12:39 PM 60.8 °F - 35.6 °F 39% 30.35 in 10.0 mi WSW 16.1 mph 27.6 mph N/A   Overcast
12:41 PM 60.8 °F - 35.6 °F 39% 30.35 in 10.0 mi WSW 16.1 mph - N/A   Overcast
2:42 PM 62.6 °F - 37.4 °F 39% 30.29 in 10.0 mi WSW 11.5 mph - N/A   Overcast
4:43 PM 62.6 °F - 37.4 °F 39% 30.26 in 10.0 mi SW 9.2 mph - N/A   Overcast
5:45 PM 62.6 °F - 37.4 °F 39% 29.53 in 10.0 mi SSW 8.1 mph - N/A   Overcast
7:41 PM 57.2 °F - 35.6 °F 44% 30.28 in 10.0 mi South 6.9 mph - N/A   Overcast
8:42 PM 55.4 °F - 35.6 °F 47% 30.30 in 10.0 mi South 5.8 mph - N/A   Overcast
9:48 PM 53.6 °F - 37.4 °F 54% 30.31 in 10.0 mi South 6.9 mph - N/A   Overcast
10:46 PM 51.8 °F - 35.6 °F 54% 30.32 in 10.0 mi SSW 5.8 mph - N/A   Overcast